"UTC","timestamp","timezone","Snow depth (mm)","Temperature probe, 0.0 m (°C)","Temperature probe, -0.02 m (°C)","Temperature probe, -0.05 m (°C)","Snow profile, 50 mm (°C)","Temperature probe, -0.1 m (°C)","Snow profile, 100 mm (°C)","Temperature probe, -0.15 m (°C)","Snow profile, 150 mm (°C)","Temperature probe, -0.2 m (°C)","Snow profile, 200mm (°C)","Snow profile, 250 mm (°C)","Temperature probe, -0.3 m (°C)","Snow profile, 300 mm (°C)","Snow profile, 350 mm (°C)","Temperature probe, -0.4 m (°C)","Snow profile, 400 mm (°C)","Snow profile, 450 mm (°C)","Temperature probe, -0.5 m (°C)","Snow profile, 500 mm (°C)","Snow profile, 550 mm (°C)","Temperature probe, -0.6 m (°C)","Snow profile, 600 mm (°C)","Snow profile, 650 mm (°C)","Temperature probe, -0.7 m (°C)","Snow profile, 700 mm (°C)","Snow profile, 750 mm (°C)","Temperature probe, -0.8 m (°C)","Snow profile, 800 mm (°C)","Snow profile, 850 mm (°C)","Temperature probe, -0.9 m (°C)","Snow profile, 900 mm (°C)","Snow profile, 950 mm (°C)","Temperature probe, -1.0 m (°C)","Snow profile, 1000 mm (°C)","Snow profile, 1050 mm (°C)","Snow profile, 1100 mm (°C)","Snow profile, 1150 mm (°C)","Snow profile, 1200 mm (°C)","Snow profile, 1250 mm (°C)","Snow profile, 1300 mm (°C)","Snow profile, 1350 mm (°C)","Snow profile, 1400 mm (°C)","Snow profile, 1450 mm (°C)","Snow profile, 1500 mm (°C)","Snow profile, 1550 mm (°C)","Temperature probe, -1.6 m (°C)","Snow profile, 1600 mm (°C)","Atmospheric pressure (mmHg)","Water level (mm)","Water temperature (°C)","Solar radiation (upper) (W / m2)","Solar radiation (lower) (W / m2)","Precipitation (mm)"
2004-07-28 19:51:12,1091044272,7,4.97,8.53,0.00,13.77,12.00,34.00,12.00,0.00,12.06,8.01,12.04,12.52,12.20,12.57,12.01,12.00,6.57,6.21,10.00,4.05,0.00,10.01,0.00,0.00,8.75,0.00,0.00,8.18,2.25,2.63,9.63,3.10,3.30,8.13,3.66,4.25,5.00,6.00,8.03,3.51,0.00,27.51,6.95,8.09,9.31,12.50,3.09,0.00,-100.00,-9.86,-3.12,12.02,13.25,0.00
2004-08-22 02:08:00,1093140480,7,4.50,10.51,0.00,12.00,11.00,34.00,11.51,0.00,11.52,8.94,11.31,8.01,8.80,8.01,8.06,12.14,6.02,4.07,8.77,3.03,0.00,8.29,0.00,0.00,8.52,0.00,0.00,8.14,2.05,2.50,8.63,3.01,3.14,8.00,3.51,4.06,4.66,6.25,9.34,12.31,16.08,26.01,6.58,9.00,18.26,12.13,3.27,0.00,-100.00,-8.61,-3.12,12.53,12.63,0.00
2016-04-03 04:00:00,1459656000,6,0.57,0.00,0.38,7.02,0.07,0.02,0.19,0.00,0.61,0.00,3.08,5.43,-0.05,5.89,6.01,-0.06,6.08,6.24,-0.10,6.38,6.31,-0.07,6.46,6.40,-0.00,6.53,6.66,0.14,6.67,6.75,0.38,6.74,6.78,0.49,6.81,6.76,6.65,6.68,6.68,6.77,6.79,6.71,6.73,6.81,6.70,6.84,1.51,0.00,-100.00,-100.00,0.26,113.46,51.49,0.00
2016-04-03 05:00:00,1459659600,6,2.52,0.07,0.44,9.86,0.14,0.08,0.38,0.00,1.24,0.00,4.72,7.34,-0.05,7.90,8.02,-0.06,8.09,8.38,-0.10,8.59,8.52,-0.00,8.73,8.61,0.06,8.74,8.81,0.07,8.87,8.96,0.38,8.95,8.99,0.49,9.02,8.97,8.97,9.01,9.07,9.11,9.17,9.09,9.18,9.27,9.16,9.26,1.57,0.00,-100.00,-100.00,0.39,95.84,43.80,0.00
2016-04-03 06:00:00,1459663200,6,6.11,0.07,1.08,12.25,0.20,0.08,0.95,0.00,2.82,0.00,9.06,11.98,0.02,12.25,12.17,-0.06,12.03,12.16,-0.10,12.38,12.24,-0.07,12.52,12.38,-0.00,12.46,12.55,0.07,12.71,12.80,0.38,12.72,12.77,0.49,12.83,12.81,12.67,12.73,12.72,12.71,12.93,12.85,12.89,12.98,12.88,12.99,1.51,0.00,-100.00,-100.00,0.45,268.21,107.60,0.00
2016-04-03 07:00:00,1459666800,6,5.73,0.07,1.71,14.77,0.32,0.08,1.07,0.00,3.39,0.00,10.32,12.80,-0.05,12.88,12.67,-0.06,12.53,12.60,-0.10,12.89,12.81,-0.00,13.03,13.01,-0.00,13.16,13.24,0.07,13.46,13.55,0.38,13.41,13.46,0.49,13.46,13.44,13.24,13.11,13.10,13.03,13.12,12.98,13.08,13.17,13.26,13.44,1.51,0.00,-100.00,-100.00,0.77,227.19,86.89,0.00
2016-04-03 08:00:00,1459670400,6,4.91,0.07,1.71,14.39,0.26,0.15,0.88,0.00,2.76,0.00,7.30,9.31,-0.05,9.67,9.78,-0.06,9.78,9.96,-0.10,10.17,10.10,-0.00,10.25,10.12,0.06,10.25,10.33,0.07,10.38,10.47,0.38,10.39,10.44,0.49,10.48,10.41,10.42,10.40,10.46,10.50,10.55,10.53,10.63,10.65,10.61,10.71,1.51,0.00,-100.00,-100.00,0.64,148.41,58.18,0.00
2016-04-03 09:00:00,1459674000,6,3.97,0.07,1.65,13.51,0.20,0.08,0.82,0.00,2.69,0.00,6.99,8.67,-0.05,8.98,9.09,-0.06,9.15,9.26,-0.10,9.48,9.40,-0.00,9.55,9.49,0.06,9.62,9.64,0.07,9.69,9.78,0.38,9.70,9.74,0.49,9.79,9.78,9.79,9.77,9.83,9.81,9.86,9.84,9.94,9.90,9.85,9.95,1.51,0.00,-100.00,-100.00,0.51,98.46,39.33,0.00
2016-04-03 10:00:00,1459677600,6,2.65,0.07,1.27,13.20,0.20,0.08,0.63,0.00,2.06,0.00,5.16,6.58,-0.05,7.02,7.20,-0.06,7.34,7.56,-0.10,7.84,7.83,-0.00,8.04,7.98,-0.00,8.23,8.37,0.14,8.43,8.58,0.38,8.57,8.61,0.49,8.64,8.65,8.72,8.76,8.82,8.86,8.86,8.91,8.93,9.02,8.91,9.07,1.51,0.00,-100.00,-100.00,0.51,60.47,26.01,0.00
2016-04-03 11:00:00,1459681200,6,1.45,0.07,0.82,11.88,0.14,0.08,0.38,0.00,1.12,0.00,3.15,4.10,-0.05,4.69,5.26,-0.13,5.71,6.17,-0.10,6.64,6.63,-0.00,6.84,6.78,0.06,6.90,6.98,0.14,6.99,7.13,0.44,7.06,7.16,0.49,7.12,7.14,7.16,7.12,7.25,7.28,7.23,7.28,7.36,7.38,7.33,7.42,1.51,0.00,-100.00,104.42,0.51,15.02,9.23,0.00
2016-04-03 12:00:00,1459684800,6,0.82,0.07,0.51,10.05,0.07,0.08,0.19,-0.06,0.74,0.00,2.39,3.27,-0.05,3.74,4.19,-0.06,4.52,4.91,-0.10,5.37,5.43,-0.00,5.70,5.71,-0.00,5.89,5.96,0.07,6.04,6.25,0.38,6.18,6.28,0.49,6.30,6.32,6.34,6.37,6.49,6.52,6.47,6.52,6.60,6.56,6.57,6.65,1.51,0.00,-100.00,119.87,0.32,6.27,4.52,0.00
2016-04-03 13:00:00,1459688400,6,0.44,0.07,0.32,7.65,0.07,0.02,0.13,0.00,0.61,-0.06,2.58,3.65,-0.11,4.12,4.44,-0.06,4.71,4.91,-0.10,5.18,5.18,-0.07,5.32,5.27,0.06,5.45,5.46,0.07,5.41,5.56,0.38,5.48,5.52,0.49,5.54,5.56,5.59,5.61,5.67,5.70,5.66,5.71,5.79,5.80,5.75,5.83,1.51,0.00,-100.00,135.95,0.20,-2.49,0.58,0.00
2016-04-03 14:00:00,1459692000,6,0.32,0.07,0.19,6.26,0.07,0.08,0.13,0.00,0.36,0.00,1.39,2.00,-0.11,2.35,2.68,-0.06,2.89,3.08,-0.10,3.41,3.34,-0.00,3.48,3.50,0.06,3.68,3.74,0.07,3.72,3.92,0.38,3.85,3.88,0.49,3.95,3.98,4.08,4.10,4.22,4.24,4.21,4.20,4.34,4.41,4.37,4.50,1.51,0.00,-100.00,152.53,0.07,-1.42,0.36,0.00
2016-04-03 15:00:00,1459695600,6,0.25,0.07,0.19,5.19,0.07,0.08,0.07,0.00,0.36,-0.06,1.45,2.00,-0.11,2.29,2.49,-0.13,2.64,2.83,-0.10,3.03,3.03,-0.00,3.17,3.06,0.06,3.24,3.30,0.07,3.28,3.42,0.38,3.34,3.38,0.49,3.44,3.41,3.52,3.53,3.59,3.61,3.58,3.64,3.71,3.72,3.73,3.80,1.51,0.00,-100.00,168.81,0.07,-0.30,1.00,0.00
2016-04-03 16:00:00,1459699200,6,0.25,0.07,0.13,4.50,0.07,0.08,0.13,0.00,0.29,0.00,1.26,1.68,-0.11,1.91,2.11,-0.06,2.20,2.33,-0.10,2.53,2.46,-0.07,2.60,2.49,-0.00,2.67,2.73,0.07,2.65,2.85,0.38,2.71,2.75,0.49,2.81,2.78,2.89,2.90,2.97,2.98,2.96,2.95,3.08,3.15,3.10,3.22,1.51,0.00,-100.00,185.29,0.07,0.15,1.76,0.00
2016-04-03 17:00:00,1459702800,6,0.19,0.07,0.13,3.80,0.07,0.08,0.07,0.00,0.23,0.00,1.01,1.43,-0.11,1.53,1.67,-0.13,1.76,1.88,-0.10,2.09,1.96,-0.07,2.03,1.99,-0.00,2.10,2.16,0.14,2.08,2.22,0.38,2.14,2.18,0.49,2.24,2.28,2.26,2.27,2.40,2.34,2.33,2.39,2.45,2.52,2.47,2.53,1.51,0.00,-100.00,201.84,0.07,-0.38,1.51,0.00
2016-04-03 18:00:00,1459706400,6,0.19,0.07,0.13,3.42,0.07,0.08,0.07,0.00,0.23,0.00,0.88,1.17,-0.11,1.34,1.42,-0.06,1.51,1.69,-0.10,1.96,1.83,-0.07,1.97,1.93,-0.00,2.04,2.10,0.07,2.02,2.16,0.38,2.08,2.18,0.49,2.24,2.28,2.32,2.27,2.40,2.41,2.39,2.45,2.58,2.58,2.60,2.72,1.51,0.00,-100.00,218.44,0.07,0.22,1.94,0.00
2016-04-03 19:00:00,1459710000,6,0.07,0.00,0.13,3.11,0.01,0.08,0.07,0.00,0.04,0.00,0.38,0.67,-0.11,0.78,0.85,-0.13,0.95,1.13,-0.10,1.33,1.26,-0.07,1.40,1.30,0.06,1.47,1.52,0.07,1.51,1.65,0.38,1.64,1.74,0.49,1.86,1.90,2.01,2.02,2.15,2.22,2.20,2.26,2.39,2.46,2.47,2.59,1.51,0.00,-100.00,235.27,0.07,-8.85,2.01,0.00
2016-04-03 20:00:00,1459713600,6,0.00,0.07,0.06,2.04,0.07,0.08,0.00,0.00,-0.21,0.00,-0.63,-0.67,-0.11,-0.68,-0.66,-0.13,-0.62,-0.52,-0.10,-0.32,-0.44,-0.07,-0.31,-0.41,0.06,-0.24,-0.13,0.07,-0.19,-0.05,0.38,-0.06,-0.02,0.49,0.01,0.07,0.13,0.19,0.38,0.38,0.44,0.50,0.69,0.75,0.83,0.94,1.51,0.00,-100.00,252.07,0.01,-11.77,2.95,0.00
2016-04-03 21:00:00,1459717200,6,0.00,0.07,0.06,1.97,0.07,0.02,0.07,0.00,0.10,0.00,0.69,0.92,-0.11,1.09,1.11,-0.06,1.20,1.32,-0.10,1.52,1.51,-0.00,1.59,1.55,-0.00,1.66,1.71,0.14,1.70,1.84,0.38,1.77,1.80,0.49,1.86,1.90,1.88,1.96,1.96,2.03,1.95,2.01,2.07,2.08,2.09,2.14,1.51,0.00,-100.00,268.98,0.01,0.28,3.02,0.00
2016-04-03 22:00:00,1459720800,6,0.00,0.07,0.06,1.72,0.07,0.02,0.07,0.00,0.04,-0.06,0.25,0.41,-0.11,0.46,0.54,-0.13,0.57,0.68,-0.10,0.88,0.76,-0.00,0.89,0.79,-0.00,0.90,0.95,0.07,0.88,1.08,0.38,1.01,0.98,0.49,1.03,1.01,1.07,1.07,1.07,1.20,1.13,1.19,1.26,1.32,1.27,1.38,1.51,0.00,-100.00,286.40,0.01,-1.01,3.22,0.00
2016-04-03 23:00:00,1459724400,6,0.00,0.07,0.13,1.59,0.07,0.02,0.00,0.00,-0.02,-0.06,-0.00,0.09,-0.11,0.21,0.22,-0.13,0.32,0.37,-0.10,0.63,0.50,-0.07,0.64,0.60,0.06,0.71,0.83,0.07,0.69,0.83,0.38,0.76,0.80,0.49,0.84,0.89,0.88,0.89,0.95,0.95,0.94,0.94,1.00,1.01,1.02,1.13,1.51,0.00,-100.00,303.15,0.01,-6.43,2.99,0.00
2016-04-04 00:00:00,1459728000,6,0.07,0.07,0.13,1.47,0.07,0.08,0.07,-0.06,0.17,-0.06,0.57,0.73,-0.11,0.84,0.85,-0.06,0.95,1.00,-0.10,1.33,1.20,-0.07,1.33,1.30,-0.00,1.47,1.52,0.07,1.45,1.59,0.38,1.51,1.61,0.49,1.60,1.65,1.70,1.70,1.77,1.84,1.76,1.82,1.95,1.89,1.90,2.02,1.51,0.00,-100.00,320.65,0.01,3.98,4.65,0.00
2016-04-04 01:00:00,1459731600,6,0.13,0.07,0.13,1.85,0.07,0.02,0.13,-0.06,0.36,0.00,1.13,1.43,-0.11,1.47,1.55,-0.13,1.57,1.76,-0.10,1.90,1.83,-0.07,1.90,1.80,-0.00,1.97,2.03,0.07,1.95,2.09,0.38,2.02,2.06,0.49,2.05,2.09,2.07,2.08,2.15,2.15,2.14,2.14,2.14,2.20,2.16,2.27,1.51,0.00,-100.00,335.55,0.01,7.51,5.49,0.00
2016-04-04 02:00:00,1459735200,6,0.38,0.07,0.32,3.61,0.14,0.08,0.32,0.00,1.05,-0.06,2.33,2.70,-0.11,2.73,2.80,-0.13,2.76,2.89,-0.10,3.03,2.90,-0.00,2.98,2.87,-0.00,3.05,3.05,0.14,3.02,3.16,0.38,3.03,3.07,0.49,3.06,3.04,3.08,3.03,3.09,3.10,3.08,3.08,3.14,3.15,3.04,3.16,1.51,0.00,-100.00,352.29,0.07,45.33,20.56,0.00
2016-04-04 03:00:00,1459738800,6,1.45,0.07,0.76,5.70,0.14,0.08,0.69,-0.06,2.06,-0.06,3.97,4.48,-0.11,4.56,4.50,-0.13,4.45,4.53,-0.10,4.68,4.54,-0.00,4.69,4.51,-0.00,4.63,4.70,0.14,4.66,4.74,0.38,4.66,4.70,0.49,4.71,4.68,4.71,4.73,4.73,4.75,4.71,4.71,4.78,4.79,4.74,4.81,1.51,0.00,-100.00,369.39,0.20,65.95,29.18,0.00
2016-04-04 04:00:00,1459742400,6,2.58,0.07,1.08,7.08,0.20,0.08,0.63,0.00,1.81,0.00,4.15,4.74,-0.11,4.81,4.82,-0.13,4.77,4.85,-0.10,5.06,4.99,-0.00,5.13,5.08,0.06,5.13,5.20,0.07,5.16,5.24,0.38,5.17,5.15,0.49,5.16,5.12,5.15,5.05,5.11,5.06,5.09,5.08,5.16,5.17,5.12,5.26,1.51,0.00,-100.00,386.85,0.39,163.33,49.26,0.00
2016-04-04 05:00:00,1459746000,6,4.10,0.07,1.65,8.66,0.26,0.08,1.01,0.00,2.95,-0.06,5.48,6.07,-0.11,6.14,6.14,-0.13,6.08,6.24,-0.10,6.32,6.19,-0.00,6.33,6.15,0.06,6.27,6.28,0.07,6.29,6.38,0.38,6.30,6.28,0.49,6.36,6.25,6.28,6.24,6.30,6.33,6.28,6.27,6.35,6.43,6.39,6.46,1.51,0.00,-100.00,403.95,0.51,67.30,30.91,0.00
2016-04-04 06:00:00,1459749600,6,4.22,0.07,2.03,9.35,0.45,0.08,1.64,0.00,4.40,-0.06,6.99,7.60,-0.11,7.59,7.52,-0.13,7.52,7.62,-0.10,7.77,7.64,-0.07,7.72,7.60,-0.00,7.66,7.67,0.14,7.74,7.83,0.38,7.69,7.73,0.49,7.76,7.70,7.66,7.69,7.69,7.72,7.79,7.71,7.80,7.88,7.77,7.86,1.51,0.00,-100.00,421.86,0.58,162.73,59.36,0.00
2016-04-04 07:00:00,1459753200,6,3.97,0.07,2.09,9.80,0.39,0.15,1.45,0.00,3.96,-0.06,6.29,6.77,-0.11,6.83,6.76,-0.13,6.71,6.80,-0.10,6.95,6.75,-0.00,6.90,6.78,-0.00,6.84,6.85,0.14,6.86,6.94,0.38,6.87,6.85,0.49,6.87,6.82,6.84,6.81,6.87,6.90,6.91,6.84,6.98,7.00,6.89,6.97,1.51,0.00,-100.00,439.18,0.58,127.35,48.15,0.00
2016-04-04 08:00:00,1459756800,6,2.84,0.07,1.90,9.73,0.39,0.15,1.45,0.00,3.96,-0.06,6.36,6.96,-0.11,6.96,6.95,-0.06,6.90,7.06,-0.10,7.20,7.07,-0.00,7.15,7.03,-0.00,7.09,7.17,0.07,7.11,7.26,0.38,7.12,7.16,0.49,7.19,7.14,7.16,7.12,7.18,7.22,7.23,7.15,7.23,7.31,7.21,7.29,1.51,0.00,-100.00,457.32,0.51,106.07,41.46,0.00
2016-04-04 09:00:00,1459760400,6,1.83,0.07,1.71,9.92,0.39,0.15,1.26,0.00,3.58,-0.06,5.79,6.26,-0.11,6.39,6.32,-0.13,6.33,6.43,-0.10,6.57,6.44,-0.00,6.58,6.47,-0.00,6.59,6.60,0.07,6.55,6.69,0.38,6.62,6.59,0.49,6.68,6.63,6.65,6.62,6.68,6.65,6.66,6.65,6.73,6.75,6.64,6.78,1.51,0.00,-100.00,476.15,0.58,76.15,30.97,0.00
2016-04-04 10:00:00,1459764000,6,1.14,0.07,1.27,9.35,0.39,0.08,1.32,0.00,3.77,-0.06,5.66,6.07,-0.11,6.08,6.14,-0.13,6.15,6.24,-0.10,6.38,6.25,-0.07,6.33,6.28,0.06,6.34,6.41,0.14,6.36,6.44,0.44,6.36,6.41,0.49,6.43,6.38,6.40,6.43,6.43,6.46,6.47,6.46,6.54,6.56,6.45,6.53,1.51,0.00,-100.00,494.71,0.51,78.80,30.32,0.00
2016-04-04 11:00:00,1459767600,6,0.57,0.07,0.82,8.35,0.26,0.08,0.88,0.00,2.88,-0.06,4.34,4.67,-0.11,4.69,4.75,-0.06,4.77,4.91,-0.10,5.06,4.92,-0.00,5.07,4.95,0.06,5.07,5.08,0.07,5.04,5.18,0.38,5.11,5.08,0.49,5.09,5.12,5.08,5.17,5.17,5.13,5.15,5.15,5.16,5.23,5.19,5.26,1.51,0.00,-100.00,513.14,0.45,35.26,15.21,0.00
2016-04-04 12:00:00,1459771200,6,0.25,0.07,0.51,7.40,0.20,0.08,0.69,0.00,2.63,-0.06,4.09,4.42,-0.11,4.50,4.56,-0.13,4.58,4.72,-0.10,4.87,4.73,-0.07,4.88,4.76,-0.00,4.88,4.95,0.07,4.85,4.99,0.38,4.85,4.89,0.49,4.90,4.93,4.96,4.92,4.98,5.00,4.97,4.89,5.03,5.04,5.00,5.07,1.51,0.00,-100.00,532.62,0.32,13.55,6.88,0.00
2016-04-04 13:00:00,1459774800,6,0.07,0.07,0.25,5.89,0.07,0.08,0.25,0.00,0.99,0.00,2.01,2.38,-0.11,2.67,2.87,-0.13,2.95,3.15,-0.10,3.41,3.34,-0.07,3.48,3.38,-0.00,3.55,3.62,0.14,3.53,3.67,0.38,3.59,3.63,0.49,3.63,3.67,3.70,3.72,3.78,3.80,3.77,3.77,3.90,3.91,3.86,3.92,1.51,0.00,-100.00,553.28,0.26,-0.90,2.02,0.00
2016-04-04 14:00:00,1459778400,6,0.07,0.07,0.13,4.50,0.07,0.02,0.19,0.00,0.80,-0.06,1.57,1.87,-0.11,2.04,2.24,-0.06,2.39,2.58,-0.10,2.84,2.78,-0.00,2.98,2.87,0.06,3.05,3.17,0.14,3.09,3.23,0.38,3.22,3.25,0.49,3.25,3.29,3.39,3.41,3.47,3.48,3.46,3.52,3.52,3.59,3.55,3.61,1.51,0.00,-100.00,572.15,0.20,-1.21,1.34,0.00
2016-04-04 15:00:00,1459782000,6,0.07,0.07,0.13,4.06,0.07,0.08,0.19,0.00,0.93,0.00,1.76,2.07,-0.11,2.23,2.36,-0.06,2.45,2.64,-0.10,2.91,2.78,-0.07,2.98,2.87,0.06,3.05,3.11,0.07,3.09,3.29,0.32,3.22,3.32,0.49,3.38,3.41,3.45,3.47,3.53,3.55,3.52,3.45,3.65,3.59,3.61,3.67,1.51,0.00,-100.00,591.77,0.13,-1.28,1.77,0.00
2016-04-04 16:00:00,1459785600,6,0.13,0.00,0.13,3.80,0.07,0.02,0.19,-0.06,0.93,0.00,1.70,2.07,-0.11,2.23,2.43,-0.06,2.58,2.77,-0.10,3.03,2.97,-0.00,3.11,3.06,-0.00,3.17,3.30,0.07,3.21,3.42,0.32,3.28,3.38,0.49,3.38,3.41,3.45,3.47,3.53,3.55,3.46,3.45,3.58,3.59,3.55,3.61,1.51,0.00,-100.00,610.95,0.13,-0.99,1.74,0.00
2016-04-04 17:00:00,1459789200,6,0.13,0.07,0.13,3.80,0.07,0.08,0.32,0.00,1.43,-0.06,2.39,2.70,-0.11,2.79,2.93,-0.06,2.95,3.08,-0.10,3.29,3.22,-0.07,3.36,3.25,-0.00,3.36,3.43,0.07,3.34,3.48,0.38,3.40,3.44,0.49,3.51,3.54,3.52,3.53,3.59,3.61,3.52,3.58,3.65,3.66,3.61,3.73,1.51,0.00,-100.00,629.86,0.07,-1.73,2.13,0.00
2016-04-04 18:00:00,1459792800,6,0.00,0.07,0.13,3.17,0.07,0.08,0.13,0.00,0.42,-0.06,1.01,1.24,-0.11,1.41,1.55,-0.13,1.70,1.82,-0.10,2.15,2.02,-0.00,2.16,2.12,-0.00,2.23,2.29,0.14,2.27,2.41,0.38,2.33,2.37,0.49,2.43,2.47,2.51,2.46,2.52,2.60,2.52,2.51,2.64,2.65,2.60,2.72,1.51,0.00,-100.00,649.87,0.07,-10.75,2.79,0.00
2016-04-04 19:00:00,1459796400,6,0.07,0.00,0.13,2.16,0.07,0.08,-0.06,-0.06,-0.53,-0.06,-0.25,-0.10,-0.11,0.02,0.22,-0.13,0.32,0.49,-0.10,0.76,0.69,-0.00,0.83,0.79,0.06,0.96,1.02,0.07,1.01,1.08,0.38,1.07,1.11,0.49,1.16,1.20,1.19,1.20,1.26,1.33,1.26,1.32,1.38,1.38,1.34,1.44,1.51,0.00,-100.00,669.28,0.07,-17.22,3.27,0.00
2016-04-04 20:00:00,1459800000,6,0.07,0.07,0.13,1.40,0.07,0.02,0.07,0.00,0.42,-0.06,1.20,1.37,-0.11,1.41,1.42,-0.06,1.51,1.57,-0.10,1.77,1.64,-0.00,1.78,1.67,0.06,1.78,1.84,0.07,1.76,1.84,0.32,1.83,1.87,0.49,1.86,1.84,1.88,1.89,1.96,1.96,1.89,1.88,1.95,1.95,1.97,2.02,1.51,0.00,-100.00,689.31,0.07,-12.06,3.51,0.00
2016-04-04 21:00:00,1459803600,6,0.07,0.07,0.13,1.78,0.07,0.08,0.07,0.00,0.36,-0.06,1.01,1.24,-0.11,1.28,1.36,-0.06,1.39,1.44,-0.10,1.64,1.51,-0.00,1.65,1.55,-0.00,1.66,1.71,0.14,1.64,1.78,0.38,1.64,1.68,0.49,1.67,1.71,1.70,1.70,1.77,1.77,1.70,1.70,1.82,1.76,1.78,1.83,1.51,0.00,-100.00,707.25,0.01,-11.77,3.20,0.00
2016-04-04 22:00:00,1459807200,6,0.07,0.07,0.06,1.34,0.07,0.02,-0.19,0.00,-0.72,-0.06,-0.32,-0.10,-0.11,-0.05,0.04,-0.06,0.07,0.12,-0.10,0.38,0.25,-0.07,0.32,0.29,-0.00,0.39,0.45,0.07,0.38,0.52,0.32,0.44,0.42,0.49,0.46,0.51,0.50,0.51,0.57,0.57,0.51,0.57,0.56,0.63,0.58,0.68,1.51,0.00,-100.00,727.06,0.07,-14.98,3.43,0.00
2016-04-04 23:00:00,1459810800,6,0.07,0.07,0.13,0.52,0.01,0.02,-0.50,0.00,-1.73,-0.06,-1.45,-1.24,-0.11,-1.18,-1.10,-0.13,-1.06,-0.96,-0.10,-0.70,-0.82,-0.07,-0.69,-0.79,-0.00,-0.69,-0.57,0.07,-0.69,-0.56,0.38,-0.63,-0.59,0.49,-0.56,-0.56,-0.50,-0.57,-0.44,-0.44,-0.50,-0.50,-0.38,-0.38,-0.43,-0.34,1.51,0.00,-100.00,744.18,0.07,-14.16,3.60,0.00
2016-04-05 00:00:00,1459814400,6,0.07,0.07,0.13,0.08,0.01,0.02,-0.75,0.00,-1.73,-0.06,-1.32,-1.12,-0.11,-1.06,-0.97,-0.19,-0.87,-0.77,-0.10,-0.57,-0.70,-0.00,-0.57,-0.66,0.06,-0.56,-0.51,0.07,-0.56,-0.43,0.44,-0.50,-0.47,0.49,-0.43,-0.44,-0.44,-0.44,-0.37,-0.38,-0.44,-0.44,-0.32,-0.32,-0.37,-0.27,1.51,0.00,-100.00,764.40,0.01,-8.45,5.84,0.00
2016-04-05 01:00:00,1459818000,6,0.19,0.07,0.19,1.03,0.07,0.02,-0.56,-0.06,-0.59,-0.06,-0.00,0.16,-0.11,0.14,0.16,-0.06,0.19,0.31,-0.10,0.44,0.31,-0.07,0.45,0.35,-0.00,0.45,0.51,0.07,0.44,0.52,0.38,0.44,0.48,0.49,0.52,0.51,0.50,0.51,0.70,0.57,0.57,0.57,0.63,0.56,0.58,0.62,1.45,0.00,-100.00,783.88,0.01,12.46,12.46,0.00
2016-04-05 02:00:00,1459821600,6,0.44,0.07,0.51,2.98,0.20,0.08,0.82,0.00,1.87,-0.06,2.39,2.45,-0.11,2.42,2.43,-0.13,2.39,2.52,-0.10,2.59,2.46,-0.00,2.54,2.43,-0.00,2.54,2.54,0.07,2.52,2.66,0.38,2.52,2.50,0.49,2.55,2.53,2.57,2.52,2.59,2.60,2.58,2.51,2.64,2.65,2.60,2.65,1.51,0.00,-100.00,801.22,0.07,62.44,26.07,0.00
2016-04-05 03:00:00,1459825200,6,0.82,0.07,0.82,4.69,0.39,0.08,1.45,0.00,3.20,-0.06,3.90,4.04,-0.11,3.93,3.94,-0.06,3.89,4.03,-0.10,4.11,3.98,-0.00,4.12,3.94,0.06,4.06,4.06,0.14,4.03,4.17,0.38,4.03,4.07,0.49,4.08,4.04,4.02,4.10,4.10,4.12,4.15,4.08,4.15,4.16,4.05,4.18,1.51,0.00,-100.00,819.77,0.13,102.00,38.44,0.00
2016-04-05 04:00:00,1459828800,6,1.07,0.07,1.14,6.20,0.57,0.08,1.89,0.00,4.08,-0.06,4.97,5.12,-0.11,5.13,5.00,-0.13,4.96,5.04,-0.10,5.25,5.11,-0.07,5.19,5.08,-0.00,5.13,5.20,0.07,5.10,5.24,0.38,5.11,5.15,0.49,5.16,5.12,5.15,5.11,5.17,5.19,5.15,5.15,5.22,5.23,5.19,5.26,1.51,0.00,-100.00,837.56,0.26,100.24,38.04,0.00
2016-04-05 05:00:00,1459832400,6,1.14,0.07,1.14,6.96,0.39,0.15,1.32,0.00,3.45,0.00,4.53,4.74,-0.11,4.75,4.75,-0.13,4.77,4.91,-0.10,5.06,4.92,-0.00,5.00,4.89,-0.00,5.01,5.01,0.07,4.97,5.05,0.38,4.98,5.02,0.49,5.03,4.99,5.02,4.98,5.04,5.06,5.03,5.02,5.16,5.17,5.06,5.13,1.51,0.00,-100.00,855.63,0.26,36.00,16.85,0.00
2016-04-05 06:00:00,1459836000,6,1.83,0.13,1.27,7.34,0.64,0.08,2.14,0.00,4.59,0.00,5.60,5.82,-0.11,5.76,5.82,-0.13,5.77,5.92,-0.10,6.00,5.87,-0.00,6.01,5.84,-0.00,5.96,5.96,0.14,5.98,6.06,0.38,5.99,6.03,0.49,6.04,6.00,5.96,5.99,6.05,6.08,6.03,6.02,6.10,6.12,6.07,6.15,1.51,0.00,-100.00,873.49,0.26,100.42,37.96,0.00
2016-04-05 07:00:00,1459839600,6,3.40,0.19,2.03,8.85,0.89,0.15,3.08,0.00,5.91,-0.06,6.92,7.15,-0.11,7.02,6.95,-0.13,6.96,7.06,-0.10,7.20,7.07,-0.00,7.15,6.97,0.06,7.09,7.10,0.07,7.11,7.20,0.38,7.12,7.10,0.49,7.12,7.14,7.09,7.06,7.12,7.15,7.16,7.15,7.23,7.25,7.14,7.23,1.51,0.00,-100.00,892.43,0.32,140.07,50.03,0.00
2016-04-05 08:00:00,1459843200,6,2.58,0.19,2.22,9.48,1.20,0.15,3.77,0.00,6.73,-0.06,7.61,7.79,-0.11,7.78,7.71,-0.13,7.65,7.75,-0.10,7.90,7.76,-0.07,7.85,7.73,-0.00,7.79,7.86,0.07,7.80,7.89,0.38,7.88,7.85,0.49,7.88,7.83,7.85,7.82,7.81,7.85,7.92,7.84,7.99,8.01,7.90,7.99,1.51,0.00,-100.00,909.11,0.39,148.60,52.74,0.00
2016-04-05 09:00:00,1459846800,6,1.95,0.32,2.09,10.24,1.39,0.21,4.34,0.00,7.17,0.00,8.12,8.23,-0.11,8.22,8.15,-0.06,8.15,8.19,-0.10,8.34,8.20,-0.00,8.29,8.17,-0.00,8.23,8.24,0.07,8.24,8.33,0.38,8.25,8.30,0.49,8.33,8.27,8.22,8.20,8.25,8.23,8.35,8.28,8.43,8.39,8.34,8.37,1.51,0.00,-100.00,926.52,0.39,147.53,52.11,0.00
2016-04-05 10:00:00,1459850400,6,1.01,0.13,1.52,9.73,0.70,0.15,2.64,0.00,5.35,-0.06,6.23,6.39,-0.11,6.45,6.45,-0.13,6.46,6.62,-0.10,6.76,6.63,-0.00,6.77,6.65,0.06,6.78,6.79,0.14,6.74,6.88,0.38,6.74,6.78,0.49,6.81,6.82,6.84,6.81,6.87,6.90,6.85,6.84,6.92,6.94,6.89,6.97,1.51,0.00,-100.00,942.66,0.45,51.78,19.94,0.00
2016-04-05 11:00:00,1459854000,6,0.51,0.19,1.01,9.04,0.76,0.15,2.77,0.00,5.28,-0.06,6.10,6.32,-0.11,6.39,6.45,-0.13,6.46,6.55,-0.10,6.70,6.56,-0.00,6.71,6.59,-0.00,6.72,6.72,0.07,6.67,6.82,0.38,6.68,6.72,0.49,6.74,6.69,6.78,6.75,6.81,6.77,6.79,6.77,6.86,6.87,6.76,6.91,1.51,0.00,-100.00,959.41,0.45,52.54,19.85,0.00
2016-04-05 12:00:00,1459857600,6,0.25,0.19,0.63,8.53,0.89,0.08,3.08,0.00,5.79,-0.06,6.86,6.64,-0.11,6.83,7.02,-0.13,7.15,7.25,-0.10,7.52,7.45,-0.00,7.72,7.66,-0.00,7.73,7.74,0.07,7.74,7.83,0.38,7.75,7.73,0.49,7.76,7.77,7.66,7.63,7.69,7.72,7.66,7.28,6.35,6.24,6.20,6.27,1.51,0.00,-100.00,975.98,0.32,25.69,15.83,0.00
2016-04-05 13:00:00,1459861200,6,0.07,0.07,0.32,6.89,0.07,0.08,-0.31,0.00,-0.34,-0.06,0.06,0.35,-0.11,0.52,0.79,-0.13,1.01,1.32,-0.10,1.71,1.70,-0.07,1.97,1.99,-0.00,2.10,2.29,0.14,2.27,2.41,0.38,2.33,2.43,0.49,2.55,2.59,2.64,2.65,2.71,2.79,2.77,2.89,2.89,2.90,2.91,3.03,1.51,0.00,-100.00,992.90,0.26,-20.49,2.85,0.00
2016-04-05 14:00:00,1459864800,6,0.07,0.00,0.13,3.11,-0.05,0.08,-1.07,0.00,-1.79,0.00,-1.51,-1.31,-0.11,-1.18,-0.97,-0.13,-0.81,-0.58,-0.10,-0.25,-0.32,-0.00,-0.12,-0.09,-0.00,0.07,0.19,0.07,0.13,0.26,0.38,0.25,0.29,0.49,0.33,0.32,0.38,0.38,0.51,0.51,0.51,0.50,0.63,0.63,0.64,0.68,1.51,0.00,-100.00,1012.09,0.20,-19.45,3.05,0.00
2016-04-05 15:00:00,1459868400,6,0.07,0.07,0.06,1.15,-0.18,0.08,-1.70,0.00,-2.55,-0.06,-2.27,-2.07,-0.11,-2.00,-1.85,-0.06,-1.75,-1.59,-0.10,-1.39,-1.46,-0.00,-1.33,-1.42,-0.00,-1.26,-1.14,0.07,-1.19,-1.00,0.38,-1.13,-1.03,0.49,-1.00,-1.01,-1.00,-0.94,-0.88,-0.89,-0.94,-0.94,-0.82,-0.83,-0.87,-0.78,1.51,0.00,-100.00,1030.46,0.13,-14.78,3.98,0.00
2016-04-05 16:00:00,1459872000,6,0.00,0.00,0.13,-0.49,-0.30,0.02,-2.51,0.00,-3.06,-0.06,-2.65,-2.39,-0.05,-2.19,-2.17,-0.06,-2.00,-1.91,-0.10,-1.71,-1.77,-0.07,-1.71,-1.73,0.06,-1.64,-1.52,0.07,-1.57,-1.44,0.38,-1.51,-1.48,0.49,-1.45,-1.45,-1.38,-1.32,-1.26,-1.27,-1.32,-1.31,-1.20,-1.20,-1.25,-1.10,1.51,0.00,-100.00,1049.29,0.07,-12.01,5.17,0.00
2016-04-05 17:00:00,1459875600,6,0.07,0.00,0.06,-1.12,-0.62,0.02,-3.27,0.00,-3.94,-0.06,-3.53,-3.34,-0.11,-3.20,-3.11,-0.13,-3.00,-2.92,-0.10,-2.72,-2.78,-0.07,-2.72,-2.74,-0.00,-2.65,-2.54,0.14,-2.64,-2.51,0.38,-2.58,-2.55,0.49,-2.53,-2.46,-2.45,-2.46,-2.39,-2.41,-2.39,-2.38,-2.27,-2.28,-2.26,-2.18,1.51,0.00,-100.00,1066.65,0.07,-13.70,4.35,0.00
2016-04-05 18:00:00,1459879200,6,0.07,0.00,0.06,-2.07,-1.06,0.02,-3.90,0.00,-4.19,-0.06,-3.78,-3.54,-0.11,-3.46,-3.30,-0.06,-3.25,-3.11,-0.10,-2.85,-2.97,-0.00,-2.85,-2.93,-0.00,-2.78,-2.73,0.07,-2.77,-2.64,0.38,-2.71,-2.67,0.49,-2.65,-2.59,-2.57,-2.58,-2.52,-2.47,-2.51,-2.44,-2.40,-2.40,-2.39,-2.37,1.51,0.00,-100.00,1085.12,0.07,-14.45,4.34,0.00
2016-04-05 19:00:00,1459882800,6,0.00,-0.06,0.06,-2.32,-1.56,0.08,-4.53,-0.06,-4.95,0.00,-4.60,-4.43,-0.05,-4.34,-4.12,-0.06,-3.88,-3.61,-0.10,-3.29,-3.35,-0.00,-3.16,-3.25,-0.00,-3.09,-3.05,0.07,-3.15,-3.02,0.38,-3.09,-3.05,0.49,-3.10,-3.09,-3.08,-3.09,-3.02,-3.04,-3.08,-3.07,-2.96,-3.04,-3.02,-2.95,1.51,0.00,-100.00,1104.08,0.01,-13.92,4.62,0.00
2016-04-05 20:00:00,1459886400,6,0.00,-0.19,0.06,-2.89,-2.25,0.02,-5.16,0.00,-5.46,0.00,-5.04,-4.81,-0.11,-4.66,-4.43,-0.06,-4.32,-4.18,-0.10,-3.93,-4.05,-0.07,-3.92,-4.00,0.06,-3.92,-3.87,0.07,-3.97,-3.84,0.38,-3.91,-3.87,0.49,-3.86,-3.79,-3.77,-3.78,-3.72,-3.68,-3.71,-3.70,-3.53,-3.54,-3.59,-3.52,1.51,0.00,-100.00,1122.30,0.07,-15.87,4.91,0.00
2016-04-05 21:00:00,1459890000,6,0.07,-0.44,0.06,-3.33,-2.82,0.02,-5.60,0.00,-5.78,-0.06,-5.29,-5.06,-0.05,-4.97,-4.75,-0.13,-4.69,-4.50,-0.10,-4.30,-4.43,-0.07,-4.30,-4.38,0.06,-4.30,-4.19,0.07,-4.28,-4.15,0.38,-4.22,-4.19,0.49,-4.18,-4.17,-4.15,-4.16,-4.10,-4.06,-4.08,-4.08,-3.97,-3.98,-4.03,-3.90,1.51,0.00,-100.00,1141.13,0.01,-15.92,4.90,0.00
2016-04-05 22:00:00,1459893600,6,0.00,-0.88,0.06,-4.09,-3.45,0.02,-6.23,0.00,-6.47,0.00,-6.05,-5.89,-0.11,-5.73,-5.63,-0.13,-5.57,-5.44,-0.10,-5.25,-5.38,-0.00,-5.25,-5.33,0.06,-5.18,-5.08,0.14,-5.10,-4.97,0.38,-4.98,-4.95,0.49,-4.88,-4.86,-4.77,-4.79,-4.73,-4.75,-4.71,-4.70,-4.60,-4.62,-4.66,-4.54,1.51,0.00,-100.00,1160.67,0.01,-14.64,5.40,0.00